This demonstration page uses our WeatherBlox Daily Observations layout. Learn more.

Hourly Observations for November 26, 2018

Temp ( °F °C ) Dew Point ( °F °C ) Humidity (%) Winds ( mph kmh ) Pressure ( in mb ) Visibility ( mi km ) Precip ( " mm )
12:15 am 00:15 Cloudy 28 -2.5 25 -4.1 89 89 NNW 9 15 30.33 1027 10 16.09344 0 0
12:35 am 00:35 Cloudy 28 -2.3 25 -4 88 88 NNW 8 13 30.33 1027 10 16.09344 0 0
12:55 am 00:55 Cloudy 28 -2.5 25 -3.9 90 90 NNW 5 7 30.3 1026 10 16.09344 0 0
1:15 am 01:15 Cloudy 28 -2.5 26 -3.6 92 92 NNW 8 13 30.33 1027 10 16.09344 0 0
1:35 am 01:35 Cloudy 28 -2.2 26 -3.6 90 90 NNW 8 13 30.33 1027 10 16.09344 0 0
1:55 am 01:55 Cloudy 28 -2.2 26 -3.6 90 90 NW 6 9 30.33 1027 10 16.09344 0 0
2:15 am 02:15 Mostly Cloudy 27 -2.9 25 -4 92 92 WNW 3 6 30.3 1026 10 16.09344 0 0
2:35 am 02:35 Mostly Cloudy 26 -3.5 24 -4.2 95 95 NW 3 6 30.33 1027 10 16.09344 0 0
2:55 am 02:55 Mostly Cloudy 25 -4.1 23 -4.8 95 95 Calm 30.3 1026 10 16.09344 0 0
3:15 am 03:15 Mostly Cloudy 24 -4.2 23 -4.8 96 96 Calm 30.33 1027 10 16.09344 0 0
3:35 am 03:35 Cloudy 25 -4 24 -4.6 96 96 W 5 7 30.3 1026 10 16.09344 0 0
3:55 am 03:55 Cloudy 26 -3.2 25 -4 94 94 W 5 7 30.3 1026 10 16.09344 0 0
4:15 am 04:15 Cloudy 26 -3.4 25 -3.9 96 96 W 6 9 30.3 1026 10 16.09344 0 0
4:35 am 04:35 Cloudy 26 -3.2 25 -3.8 96 96 W 6 9 30.3 1026 10 16.09344 0 0
4:55 am 04:55 Cloudy 26 -3.2 25 -4 94 94 W 5 7 30.3 1026 10 16.09344 0 0
5:15 am 05:15 Mostly Cloudy 26 -3.6 24 -4.4 94 94 W 5 7 30.3 1026 10 16.09344 0 0
5:35 am 05:35 Partly Cloudy 25 -4.1 24 -4.6 96 96 W 3 6 30.27 1025 10 16.09344 0 0
5:55 am 05:55 Clear 23 -4.9 23 -5.2 98 98 WNW 5 7 30.3 1026 10 16.09344 0 0
6:15 am 06:15 Clear 22 -5.5 22 -5.8 98 98 W 6 9 30.33 1027 10 16.09344 0 0
6:35 am 06:35 Clear 21 -6 21 -6.1 99 99 W 7 11 30.33 1027 10 16.09344 0 0
6:55 am 06:55 Clear 20 -6.5 20 -6.6 99 99 W 7 11 30.33 1027 10 16.09344 0 0
7:15 am 07:15 Clear 20 -6.5 20 -6.6 99 99 WNW 7 11 30.33 1027 10 16.09344 0 0
7:35 am 07:35 Clear 19 -7 19 -7.2 98 98 WNW 5 7 30.33 1027 10 16.09344 0 0
7:55 am 07:55 Sunny 19 -7.4 18 -7.6 98 98 W 5 7 30.36 1028 10 16.09344 0 0
8:15 am 08:15 Sunny 19 -7.1 19 -7.4 98 98 W 6 9 30.36 1028 10 16.09344 0 0
8:35 am 08:35 Partly Cloudy 21 -6.3 20 -6.8 96 96 W 6 9 30.36 1028 10 16.09344 0 0
8:55 am 08:55 Partly Cloudy 21 -6 20 -6.5 96 96 WNW 7 11 30.36 1028 10 16.09344 0 0
9:15 am 09:15 Sunny 23 -5.2 21 -5.9 95 95 WNW 7 11 30.36 1028 10 16.09344 0 0
9:35 am 09:35 Sunny 24 -4.6 22 -5.6 93 93 NW 6 9 30.33 1027 10 16.09344 0 0
9:55 am 09:55 Sunny 25 -3.9 22 -5.4 89 89 WNW 5 7 30.33 1027 10 16.09344 0 0
10:15 am 10:15 Partly Cloudy 27 -3 23 -5 86 86 WNW 6 9 30.36 1028 10 16.09344 0 0
10:35 am 10:35 Cloudy 28 -2.4 24 -4.3 87 87 WNW 7 11 30.36 1028 10 16.09344 0 0
10:55 am 10:55 Cloudy 29 -1.6 26 -3.6 86 86 NW 8 13 30.36 1028 10 16.09344 0 0
11:15 am 11:15 Mostly Cloudy 30 -0.9 26 -3.1 85 85 WNW 7 11 30.33 1027 10 16.09344 0 0
11:35 am 11:35 Mostly Cloudy 31 -0.4 28 -2.4 87 87 NW 6 9 30.3 1026 10 16.09344 0 0
11:55 am 11:55 Mostly Cloudy 32 0 29 -1.7 88 88 NW 8 13 30.3 1026 10 16.09344 0 0
12:15 pm 12:15 Cloudy 32 0 29 -1.5 90 90 NW 10 17 30.3 1026 10 16.09344 0 0
12:35 pm 12:35 Cloudy 32 0 29 -1.7 88 88 NW 8 13 30.3 1026 10 16.09344 0 0
12:55 pm 12:55 Cloudy 32 0 29 -1.7 88 88 NW 6 9 30.3 1026 10 16.09344 0 0
1:15 pm 13:15 Mostly Cloudy 32 0.1 29 -1.5 89 89 NW 8 13 30.3 1026 10 16.09344 0 0
1:35 pm 13:35 Mostly Cloudy 33 0.5 29 -1.5 87 87 NW 7 11 30.3 1026 10 16.09344 0 0
1:55 pm 13:55 Cloudy 32 0.2 29 -1.5 89 89 NW 6 9 30.3 1026 10 16.09344 0 0
2:15 pm 14:15 Cloudy 32 0.2 29 -1.5 89 89 NW 7 11 30.27 1025 10 16.09344 0 0
2:35 pm 14:35 Cloudy 33 0.3 30 -1.3 89 89 NW 8 13 30.27 1025 10 16.09344 0 0
2:55 pm 14:55 Cloudy 33 0.4 30 -1.1 90 90 NNW 7 11 30.27 1025 10 16.09344 0 0
3:15 pm 15:15 Cloudy 32 0.1 29 -1.7 88 88 N 7 11 30.27 1025 10 16.09344 0 0
3:35 pm 15:35 Cloudy 32 0.1 29 -1.8 87 87 NNW 8 13 30.27 1025 10 16.09344 0 0
3:55 pm 15:55 Cloudy 32 0 28 -2 87 87 NNW 5 7 30.27 1025 10 16.09344 0 0
4:15 pm 16:15 Cloudy 32 0 29 -1.8 88 88 NW 5 7 30.27 1025 10 16.09344 0 0
4:35 pm 16:35 Cloudy 32 0 29 -1.8 88 88 NW 5 7 30.27 1025 10 16.09344 0 0
4:55 pm 16:55 Cloudy 32 0 28 -2.5 83 83 NW 8 13 30.27 1025 10 16.09344 0 0
5:15 pm 17:15 Cloudy 32 0 27 -2.8 82 82 NNW 8 13 30.27 1025 10 16.09344 0 0
5:35 pm 17:35 Cloudy 31 -0.3 28 -2.2 87 87 NNE 6 9 30.27 1025 10 16.09344 0 0
5:55 pm 17:55 Cloudy 31 -0.5 28 -2.2 88 88 NNE 3 6 30.27 1025 10 16.09344 0 0
6:15 pm 18:15 Cloudy 31 -0.5 28 -2.4 87 87 Calm 30.27 1025 10 16.09344 0 0
6:35 pm 18:35 Cloudy 31 -0.5 28 -2.5 87 87 Calm 30.27 1025 10 16.09344 0 0
6:55 pm 18:55 Cloudy 31 -0.5 28 -2.5 87 87 Calm 30.24 1024 10 16.09344 0 0
7:15 pm 19:15 Cloudy 31 -0.6 28 -2.2 89 89 Calm 30.24 1024 10 16.09344 0 0
7:35 pm 19:35 Cloudy 31 -0.7 28 -2.1 90 90 Calm 30.24 1024 10 16.09344 0 0
7:55 pm 19:55 Cloudy 31 -0.8 28 -2 92 92 Calm 30.24 1024 10 16.09344 0 0
8:15 pm 20:15 Cloudy 31 -0.7 29 -1.9 92 92 Calm 30.24 1024 10 16.09344 0 0
8:35 pm 20:35 Cloudy 30 -0.9 29 -1.6 95 95 Calm 30.24 1024 10 16.09344 0 0
8:55 pm 20:55 Cloudy 30 -1 28 -2.1 92 92 Calm 30.24 1024 10 16.09344 0 0
9:15 pm 21:15 Cloudy 31 -0.8 28 -2 92 92 Calm 30.24 1024 10 16.09344 0 0
9:35 pm 21:35 Mostly Cloudy 30 -1.1 28 -2.3 92 92 Calm 30.24 1024 10 16.09344 0 0
9:55 pm 21:55 Partly Cloudy 27 -2.6 26 -3.1 96 96 ENE 6 9 30.27 1025 10 16.09344 0 0
10:15 pm 22:15 Clear 27 -3 26 -3.5 96 96 ESE 5 7 30.27 1025 10 16.09344 0 0
10:35 pm 22:35 Clear 25 -3.9 24 -4.2 98 98 E 6 9 30.27 1025 10 16.09344 0 0
10:55 pm 22:55 Clear 25 -4 24 -4.2 99 99 E 3 6 30.27 1025 10 16.09344 0 0
11:15 pm 23:15 Clear 25 -3.9 25 -4 99 99 S 3 6 30.27 1025 10 16.09344 0 0
11:35 pm 23:35 Mostly Cloudy 25 -4 25 -4.1 99 99 S 3 6 30.27 1025 10 16.09344 0 0
11:55 pm 23:55 Mostly Cloudy 25 -3.8 25 -4 99 99 S 3 6 30.27 1025 10 16.09344 0 0

Powered by AerisWeather